Weather History for KRTS - March, 2013

Change the Weather History Date:

Sunday, March 3, 2013

  Actual Average (KRNO) Record (KRNO)
Temperature  
Mean Temperature 40 °F 44 °F  
Max Temperature 46 °F 55 °F 71 °F (1931)
Min Temperature 33 °F 32 °F 5 °F (1951)
Degree Days  
Heating Degree Days 24 21  
Month to date heating degree days 65  
Since 1 July heating degree days 3703  
Cooling Degree Days 0 0  
Month to date cooling degree days 0  
Year to date cooling degree days 0  
Moisture  
Dew Point 35 °F    
Average Humidity 80    
Maximum Humidity 93    
Minimum Humidity 46    
Precipitation  
Precipitation 0.06 in 0.03 in 0.36 in (1991)
Month to date precipitation 0.11  
Year to date precipitation 2.16  
Snow  
Snow 0.00 in 0.10 in 3.10 in (1945)
Month to date snowfall 0.4  
Since 1 July snowfall 19.4  
Snow Depth -    
Sea Level Pressure  
Sea Level Pressure 30.08 in    
Wind  
Wind Speed 6 mph (NW)    
Max Wind Speed 12 mph    
Max Gust Speed -    
Visibility 9 miles    
Events Rain    
T = Trace of Precipitation, MM = Missing Value Source: NWS Daily Summary

Daily Weather History Graph

Daily Weather History Graph

Search for Another Location

Airport or City:

Trip Planner

Search our weather history database for the weather conditions in past years. The results will help you decide how hot, cold, wet, or windy it might be!

Date:

Astronomy

Mar. 03, 2013 Rise Set
Actual Time 6:29 AM PST 5:54 PM PST
Civil Twilight 6:02 AM PST 6:21 PM PST
Nautical Twilight 5:30 AM PST 6:52 PM PST
Astronomical Twilight 4:59 AM PST 7:23 PM PST
Moon No Moon Rise 9:49 AM PST (3/3)
Length of Visible Light 12h 19m
Length of Day
11h 25m
Waning Gibbous, 62% of the Moon is Illuminated
Mar 3
Waning Gibbous
Mar 4
Last Quarter
Mar 11
New
Mar 19
First Quarter
Mar 27
Full

Hourly Weather History & Observations

Time (PST) Temp. Windchill Dew Point Humidity Pressure Visibility Wind Dir Wind Speed Gust Speed Precip Events Conditions
12:15 AM 46.4 °F 41.9 °F 26.6 °F 46% 30.14 in 10.0 mi SW 9.2 mph - N/A   Overcast
12:35 AM 46.4 °F 42.4 °F 28.4 °F 50% 30.14 in 10.0 mi WSW 8.1 mph - N/A   Overcast
12:55 AM 46.4 °F 42.9 °F 28.4 °F 50% 30.14 in 10.0 mi West 6.9 mph - N/A   Overcast
1:15 AM 44.6 °F 39.7 °F 32.0 °F 61% 30.13 in 10.0 mi WNW 9.2 mph - N/A   Overcast
1:30 AM 44.6 °F 38.8 °F 32.0 °F 61% 30.13 in 10.0 mi WNW 11.5 mph - N/A   Overcast
1:50 AM 44.6 °F 39.7 °F 32.0 °F 61% 30.13 in 10.0 mi NW 9.2 mph - N/A   Overcast
2:10 AM 42.8 °F 37.5 °F 32.0 °F 66% 30.13 in 10.0 mi NW 9.2 mph - N/A   Overcast
2:30 AM 41.0 °F 35.2 °F 32.0 °F 70% 30.13 in 10.0 mi NNW 9.2 mph - N/A Rain Light Rain
2:55 AM 41.0 °F 37.1 °F 32.0 °F 70% 30.11 in 10.0 mi North 5.8 mph - N/A Rain Light Rain
3:15 AM 41.0 °F 38.0 °F 33.8 °F 76% 30.10 in 10.0 mi North 4.6 mph - N/A   Overcast
3:30 AM 41.0 °F 39.0 °F 32.0 °F 70% 30.10 in 10.0 mi NNW 3.5 mph - N/A   Overcast
3:50 AM 41.0 °F 39.0 °F 32.0 °F 70% 30.09 in 10.0 mi West 3.5 mph - N/A   Overcast
4:10 AM 41.0 °F 38.0 °F 32.0 °F 70% 30.09 in 10.0 mi WNW 4.6 mph - N/A   Overcast
4:30 AM 39.2 °F - 33.8 °F 81% 30.09 in 10.0 mi Calm Calm - N/A   Overcast
4:50 AM 39.2 °F - 33.8 °F 81% 30.09 in 10.0 mi Calm Calm - N/A Rain Light Rain
5:10 AM 39.2 °F 37.0 °F 35.6 °F 87% 30.09 in 7.0 mi NW 3.5 mph - N/A Rain Light Rain
5:30 AM 39.2 °F 37.0 °F 35.6 °F 87% 30.10 in 10.0 mi WSW 3.5 mph - N/A   Overcast
5:50 AM 39.2 °F 37.0 °F 35.6 °F 87% 30.09 in 10.0 mi West 3.5 mph - N/A Rain Light Rain
6:10 AM 39.2 °F 35.9 °F 35.6 °F 87% 30.09 in 8.0 mi WSW 4.6 mph - N/A Rain Light Rain
6:30 AM 39.2 °F 35.0 °F 35.6 °F 87% 30.09 in 10.0 mi West 5.8 mph - N/A   Overcast
6:50 AM 39.2 °F 35.9 °F 35.6 °F 87% 30.09 in 10.0 mi West 4.6 mph - N/A Rain Light Rain
7:15 AM 39.2 °F - 35.6 °F 87% 30.09 in 6.0 mi Calm Calm - N/A Rain Light Rain
7:30 AM 39.2 °F 37.0 °F 35.6 °F 87% 30.10 in 7.0 mi NNE 3.5 mph - 0.01 in Rain Light Rain
7:50 AM 39.2 °F 35.0 °F 37.4 °F 93% 30.09 in 6.0 mi NNW 5.8 mph - 0.02 in Rain Light Rain
8:10 AM 39.2 °F 35.9 °F 37.4 °F 93% 30.09 in 10.0 mi NW 4.6 mph - N/A Rain Light Rain
8:30 AM 39.2 °F 37.0 °F 37.4 °F 93% 30.09 in 10.0 mi NW 3.5 mph - N/A Rain Light Rain
8:50 AM 39.2 °F 35.9 °F 37.4 °F 93% 30.09 in 10.0 mi NW 4.6 mph - N/A Rain Light Rain
9:10 AM 39.2 °F 35.9 °F 37.4 °F 93% 30.09 in 4.0 mi NW 4.6 mph - N/A Rain Light Rain
9:30 AM 39.2 °F 35.9 °F 37.4 °F 93% 30.09 in 5.0 mi WNW 4.6 mph - 0.01 in Rain Light Rain
9:50 AM 39.2 °F 37.0 °F 37.4 °F 93% 30.09 in 9.0 mi WNW 3.5 mph - 0.01 in Rain Light Rain
10:10 AM 39.2 °F - 35.6 °F 87% 30.09 in 10.0 mi Calm Calm - N/A Rain Light Rain
10:35 AM 41.0 °F - 37.4 °F 87% 30.08 in 9.0 mi Calm Calm - N/A Rain Light Rain
10:50 AM 41.0 °F - 37.4 °F 87% 30.08 in 10.0 mi Calm Calm - N/A Rain Light Rain
11:10 AM 41.0 °F - 37.4 °F 87% 30.08 in 10.0 mi Calm Calm - N/A Rain Light Rain
11:30 AM 41.0 °F 37.1 °F 37.4 °F 87% 30.08 in 10.0 mi NW 5.8 mph - N/A   Partly Cloudy
11:50 AM 41.0 °F 37.1 °F 35.6 °F 81% 30.08 in 10.0 mi West 5.8 mph - N/A Rain Light Rain
12:15 PM 41.0 °F 38.0 °F 35.6 °F 81% 30.07 in 7.0 mi West 4.6 mph - N/A Rain Light Rain
12:30 PM 41.0 °F 39.0 °F 37.4 °F 87% 30.06 in 7.0 mi WNW 3.5 mph - 0.01 in Rain Light Rain
12:50 PM 42.8 °F 38.6 °F 35.6 °F 76% 30.05 in 8.0 mi NW 6.9 mph - 0.02 in Rain Light Rain
1:30 PM 44.6 °F 41.4 °F 37.4 °F 76% 30.05 in 10.0 mi WSW 5.8 mph - N/A   Partly Cloudy
1:50 PM 44.6 °F 39.7 °F 37.4 °F 76% 30.04 in 10.0 mi WNW 9.2 mph - N/A Rain Light Rain
2:10 PM 44.6 °F 39.7 °F 35.6 °F 71% 30.04 in 9.0 mi WNW 9.2 mph - N/A Rain Light Rain
2:35 PM 42.8 °F 38.0 °F 37.4 °F 81% 30.05 in 7.0 mi NNW 8.1 mph - N/A Rain Light Rain
2:50 PM 44.6 °F 39.7 °F 37.4 °F 76% 30.05 in 10.0 mi North 9.2 mph - N/A   Mostly Cloudy
3:10 PM 41.0 °F 37.1 °F 37.4 °F 87% 30.04 in 5.0 mi North 5.8 mph - N/A Rain Light Rain
3:30 PM 42.8 °F 37.5 °F 37.4 °F 81% 30.04 in 10.0 mi NW 9.2 mph - 0.01 in Rain Light Rain
3:50 PM 42.8 °F 37.0 °F 37.4 °F 81% 30.04 in 10.0 mi WNW 10.4 mph - 0.01 in   Mostly Cloudy
4:15 PM 46.4 °F 42.9 °F 37.4 °F 71% 30.03 in 10.0 mi SW 6.9 mph - N/A   Mostly Cloudy
4:30 PM 44.6 °F 40.7 °F 37.4 °F 76% 30.03 in 10.0 mi SW 6.9 mph - N/A   Mostly Cloudy
4:50 PM 44.6 °F 39.7 °F 37.4 °F 76% 30.03 in 10.0 mi West 9.2 mph - N/A   Mostly Cloudy
5:10 PM 44.6 °F 41.4 °F 37.4 °F 76% 30.04 in 10.0 mi WNW 5.8 mph - N/A   Overcast
5:30 PM 44.6 °F 41.4 °F 37.4 °F 76% 30.04 in 8.0 mi WNW 5.8 mph - N/A   Overcast
5:50 PM 42.8 °F 37.0 °F 35.6 °F 76% 30.04 in 10.0 mi WNW 10.4 mph - N/A   Overcast
6:10 PM 41.0 °F 34.7 °F 35.6 °F 81% 30.04 in 10.0 mi NW 10.4 mph - N/A   Overcast
6:30 PM 41.0 °F 38.0 °F 35.6 °F 81% 30.04 in 10.0 mi NNW 4.6 mph - N/A   Overcast
6:55 PM 41.0 °F 36.4 °F 35.6 °F 81% 30.05 in 10.0 mi WNW 6.9 mph - N/A   Overcast
7:15 PM 41.0 °F 36.4 °F 35.6 °F 81% 30.05 in 10.0 mi WNW 6.9 mph - N/A   Overcast
7:30 PM 39.2 °F 35.0 °F 35.6 °F 87% 30.05 in 10.0 mi NW 5.8 mph - N/A   Mostly Cloudy
7:50 PM 39.2 °F 37.0 °F 33.8 °F 81% 30.05 in 10.0 mi NNW 3.5 mph - N/A   Mostly Cloudy
8:10 PM 37.4 °F 32.8 °F 32.0 °F 81% 30.05 in 10.0 mi NNW 5.8 mph - N/A   Overcast
8:30 PM 35.6 °F 29.9 °F 32.0 °F 87% 30.06 in 10.0 mi North 6.9 mph - N/A   Overcast
8:50 PM 37.4 °F 32.1 °F 33.8 °F 87% 30.06 in 10.0 mi North 6.9 mph - N/A   Overcast
9:10 PM 37.4 °F 32.1 °F 33.8 °F 87% 30.07 in 10.0 mi NNW 6.9 mph - N/A   Overcast
9:30 PM 39.2 °F 35.0 °F 35.6 °F 87% 30.07 in 10.0 mi NW 5.8 mph - N/A   Overcast
9:50 PM 37.4 °F 34.9 °F 33.8 °F 87% 30.07 in 10.0 mi NW 3.5 mph - N/A   Mostly Cloudy
10:10 PM 37.4 °F - 33.8 °F 87% 30.07 in 10.0 mi Calm Calm - N/A   Scattered Clouds
10:35 PM 37.4 °F 33.8 °F 33.8 °F 87% 30.08 in 10.0 mi NW 4.6 mph - N/A   Clear
10:50 PM 35.6 °F 31.7 °F 32.0 °F 87% 30.07 in 10.0 mi NW 4.6 mph - N/A   Scattered Clouds
11:10 PM 35.6 °F 29.9 °F 32.0 °F 87% 30.07 in 10.0 mi NW 6.9 mph - N/A   Mostly Cloudy
11:30 PM 35.6 °F 29.2 °F 32.0 °F 87% 30.08 in 10.0 mi NW 8.1 mph - N/A   Mostly Cloudy
11:50 PM 33.8 °F 28.6 °F 32.0 °F 93% 30.08 in 10.0 mi NW 5.8 mph - N/A   Overcast